Wind_Speed
29 30 31 32 35 42 50 54 58 67 74 73 72 73 77 80 78 79 83 83 79 79 82 77 74 67 59 53 51 62 53 47 50 48 54 54 53 57 59 60 60 61 62 59
38 33 28 29 33 35 37 44 52 56 62 62 69 67 75 80 80 77 80 80 74 72 76 73 70 65 63 61 60 59 58 46 50 50 51 52 58 64 62 66 68 67 68 58
44 40 33 28 27 29 31 31 34 42 55 56 58 59 71 77 83 80 78 80 75 68 68 64 64 68 68 67 67 68 64 61 59 55 49 61 66 66 64 69 70 72 71 76
49 39 32 27 23 22 22 23 28 31 41 48 51 48 59 70 78 82 80 78 77 72 65 54 54 63 74 75 72 71 70 69 67 68 71 71 68 64 68 67 70 71 74 77
55 50 40 30 26 25 25 21 23 24 28 35 47 43 58 63 69 80 82 75 74 71 70 69 67 57 57 59 67 67 62 66 68 69 70 67 66 70 74 74 70 72 73 78
65 57 47 40 37 35 25 22 17 14 17 23 32 39 52 54 58 70 79 72 74 71 67 62 65 67 61 60 55 51 64 65 68 72 67 68 73 73 79 84 78 79 79 80
72 58 52 42 39 27 21 16 14 11 10 14 17 25 34 38 39 48 70 74 68 73 70 68 63 65 64 59 62 66 69 68 65 65 70 73 78 81 82 82 80 78 80 84
78 66 53 40 34 24 14 11 12 8 4 8 9 15 22 25 30 38 59 69 59 63 65 68 65 66 63 60 63 66 63 64 64 73 77 74 75 77 80 81 81 82 84 88
80 73 58 46 32 29 28 18 16 13 10 5 9 15 20 26 31 28 42 57 53 52 54 56 60 64 68 68 59 58 65 65 62 64 69 74 70 70 75 81 85 85 86 88
79 77 66 50 39 27 23 24 13 4 4 10 17 15 20 29 30 35 29 50 46 42 46 50 53 52 53 62 73 74 70 65 69 74 76 77 81 84 83 82 83 85 87 90
78 79 72 58 47 34 26 19 22 18 1 7 21 18 15 22 21 33 37 43 46 43 51 52 54 55 53 50 51 55 61 70 74 75 77 79 79 80 84 87 87 89 89 90
74 78 77 68 52 41 29 20 20 18 11 4 15 23 23 18 26 28 29 49 56 52 46 48 47 48 51 52 53 54 55 57 65 75 76 79 84 84 85 84 86 88 89 91
74 75 79 74 63 45 39 25 17 18 19 15 7 7 13 20 29 28 26 29 45 61 62 59 58 55 52 53 54 55 57 57 58 64 75 78 79 80 81 84 86 88 93 98
70 73 74 75 69 56 39 31 23 14 12 12 15 13 6 9 16 19 22 26 30 39 45 55 56 54 52 51 51 52 55 58 60 62 66 70 74 78 80 84 89 93 94 94
67 70 73 73 72 67 51 37 28 20 15 9 8 6 4 8 14 14 16 21 28 31 38 41 43 46 49 50 51 53 55 56 59 61 64 68 72 76 79 81 83 84 83 84
63 66 70 72 72 68 64 45 33 25 17 15 12 10 8 8 11 13 16 19 25 30 36 39 41 44 46 48 48 49 49 51 54 56 59 63 67 71 72 71 73 77 84 89
60 62 68 70 70 69 66 58 41 30 23 20 15 17 16 15 14 15 17 20 24 28 32 35 37 38 39 40 41 43 46 48 52 56 59 60 59 61 65 71 78 84 90 96
60 59 62 64 68 66 64 63 51 36 27 20 19 17 19 23 21 21 21 21 23 24 25 27 30 33 35 37 39 42 45 48 49 47 50 53 58 65 71 77 84 90 94 100
61 57 57 59 65 63 65 64 54 43 33 25 20 18 16 17 21 26 28 27 26 27 28 30 31 33 36 38 38 36 36 39 40 43 49 57 64 70 77 83 87 92 99 102
61 56 52 58 60 62 63 64 59 49 37 28 22 18 15 10 13 12 14 17 19 21 22 23 22 22 22 25 30 33 32 37 43 50 57 63 70 73 79 86 92 97 100 98
60 54 51 55 57 59 60 61 59 52 43 31 25 19 17 13 9 7 5 5 7 12 15 18 21 24 26 28 26 31 37 41 49 56 63 70 73 79 85 90 95 96 93 83
58 59 51 51 56 59 58 58 59 55 46 37 27 23 18 13 10 9 9 10 15 18 21 24 26 26 21 23 29 36 41 47 54 62 70 72 76 83 89 93 92 88 78 65
53 53 50 50 56 62 56 56 57 54 48 40 32 25 26 22 18 16 15 17 18 20 21 24 24 22 22 26 33 39 46 52 59 64 66 76 81 87 91 88 82 72 59 54
53 53 54 52 54 63 52 55 55 54 48 44 36 31 26 28 25 22 20 20 19 22 21 24 23 23 26 32 37 42 49 55 58 64 73 79 83 85 84 78 67 57 47 47
58 56 61 55 45 63 52 53 53 53 49 45 43 35 30 28 30 27 25 23 20 22 24 24 22 23 29 36 40 45 51 55 58 69 77 79 82 82 78 65 54 46 43 43
60 59 61 49 60 57 51 49 52 51 50 47 44 37 32 27 31 31 28 25 22 24 21 16 19 24 30 35 41 46 52 56 61 71 81 79 81 78 70 56 45 39 41 42
Wind_Direction
336 318 301 288 269 254 253 254 250 249 248 248 242 236 235 235 235 235 238 236 234 238 235 237 239 238 239 244 252 255 261 259 272 275 274 279 264 275 274 277 282 286 283 280
352 341 320 300 291 284 268 257 257 255 252 251 247 240 233 234 235 234 235 239 233 233 237 236 236 236 239 241 248 253 250 262 264 280 268 272 276 273 273 273 278 279 282 278
1 353 341 327 312 294 285 279 263 247 249 248 242 236 235 230 230 233 233 235 236 232 235 240 245 239 237 242 247 250 253 257 266 265 250 269 277 273 269 273 275 276 276 277
6 1 353 342 330 320 308 288 271 257 244 243 244 233 232 229 226 231 230 229 232 235 232 220 231 240 240 239 245 252 256 259 263 262 259 268 275 269 271 272 272 273 275 277
10 11 4 4 1 353 345 325 303 282 259 243 241 225 230 226 222 224 232 228 228 231 233 233 234 235 231 239 247 256 257 257 257 255 263 267 264 269 274 273 271 269 273 275
11 14 14 8 11 7 357 348 337 310 286 257 238 224 227 226 223 219 223 227 227 226 226 230 234 235 239 253 251 235 248 251 256 260 264 262 265 265 269 272 273 273 276 275
14 14 18 12 10 13 358 1 3 352 303 263 230 220 225 224 224 221 215 225 226 226 225 225 229 239 243 239 236 240 243 249 257 258 260 263 264 264 267 272 276 277 276 276
13 13 18 13 13 356 9 23 15 22 341 236 193 194 201 200 202 209 210 220 224 228 232 232 232 230 234 238 247 253 255 253 254 257 257 260 262 264 267 272 273 275 279 283
13 12 11 18 7 356 356 355 54 67 93 94 136 152 166 173 187 199 211 211 219 223 227 234 235 240 241 241 237 239 242 242 246 254 258 259 263 267 270 273 276 278 280 282
12 12 10 8 12 354 353 353 6 86 125 84 115 122 150 171 185 166 202 206 212 227 235 235 240 239 238 237 239 240 241 245 247 252 258 261 265 270 272 274 275 275 278 282
11 11 11 8 4 7 350 337 336 344 168 128 139 143 164 177 179 189 194 195 186 213 222 227 237 241 245 246 244 246 248 249 250 254 258 262 265 267 269 271 274 278 279 282
7 10 9 9 4 1 4 336 319 323 327 265 185 176 183 200 194 193 194 187 193 211 220 231 229 236 245 251 252 252 255 258 255 253 257 260 261 265 270 275 277 280 283 284
4 5 7 9 7 2 358 355 330 320 323 324 346 221 222 240 229 229 226 213 211 221 227 233 238 249 252 253 255 258 260 263 265 263 261 264 267 271 275 278 281 283 284 287
2 2 4 8 8 3 359 355 346 325 323 311 297 322 215 218 224 229 230 231 224 228 231 235 241 247 252 255 259 263 266 267 269 270 270 270 272 274 277 280 282 285 287 288
0 359 1 3 6 6 0 359 351 336 312 311 290 308 166 192 202 205 206 217 221 227 232 239 244 247 252 257 262 266 268 269 271 273 276 277 279 281 283 284 286 288 288 290
359 356 357 1 3 5 5 357 352 343 326 292 273 271 273 236 224 218 220 223 226 230 236 241 246 250 256 262 266 270 274 276 278 280 282 284 285 287 289 289 291 292 293 296
356 355 354 356 360 0 4 2 354 344 338 324 296 273 263 261 256 257 251 246 244 246 249 253 258 263 268 272 274 276 277 281 283 284 287 289 291 293 294 295 296 297 299 300
349 351 350 352 356 357 359 1 356 347 338 332 316 294 276 264 263 262 260 258 258 259 262 264 265 268 272 275 277 279 282 283 286 290 293 297 297 297 298 300 303 303 301 299
343 347 345 346 349 354 355 356 357 348 338 330 325 311 295 278 266 261 261 262 261 264 266 269 272 274 275 277 280 283 288 295 296 299 300 299 300 303 306 306 305 304 301 303
338 343 341 340 343 349 350 353 355 353 342 326 321 313 300 288 289 279 269 266 264 265 267 270 273 277 283 286 292 295 299 305 304 302 302 304 307 308 309 307 303 302 305 308
334 341 341 334 336 343 345 347 350 349 345 331 311 307 298 283 270 255 244 253 272 279 282 286 288 290 291 296 298 305 307 305 304 305 310 311 311 312 308 305 305 308 309 308
329 333 337 330 328 337 338 342 346 346 344 333 316 295 287 278 263 251 253 268 279 283 291 294 295 294 293 299 304 308 306 306 311 315 315 317 315 311 307 308 309 309 308 307
324 332 336 329 322 329 333 336 340 341 340 338 320 296 280 276 270 259 264 276 280 285 296 300 300 294 296 300 310 307 309 316 317 320 320 319 312 308 311 312 311 308 308 310
319 325 332 327 316 324 327 330 335 336 337 333 329 306 278 271 268 262 263 275 280 287 294 300 298 294 296 309 308 311 319 318 320 326 327 321 316 315 318 316 311 310 310 311
312 317 323 321 308 321 322 323 327 330 330 330 329 315 289 265 265 260 260 272 277 286 293 296 294 299 304 309 315 322 319 321 329 334 332 325 320 322 322 317 312 313 312 312
307 313 318 307 317 318 314 316 319 324 324 327 325 320 297 267 259 260 258 269 279 291 289 293 299 304 306 315 323 320 323 328 331 335 337 332 327 328 326 317 316 314 312 314
Height
10610 10602 10596 10592 10590 10589 10588 10589 10591 10593 10597 10599 10613 10630 10640 10639 10648 10659 10669 10686 10703 10711 10726 10738 10749 10756 10760 10764 10765 10764 10767 10766 10767 10767 10765 10764 10762 10760 10758 10755 10753 10753 10753 10752
10600 10592 10587 10582 10578 10575 10574 10576 10577 10580 10579 10582 10593 10611 10618 10626 10634 10643 10655 10667 10689 10696 10708 10726 10739 10746 10748 10751 10752 10750 10756 10759 10758 10762 10757 10753 10751 10747 10747 10744 10742 10741 10741 10740
10594 10584 10577 10571 10567 10561 10559 10560 10559 10561 10559 10563 10572 10588 10597 10609 10617 10627 10640 10653 10670 10687 10699 10717 10731 10736 10740 10741 10738 10735 10742 10747 10750 10753 10748 10745 10739 10734 10734 10732 10730 10728 10728 10728
10595 10584 10574 10565 10559 10555 10552 10549 10544 10543 10544 10547 10553 10573 10577 10590 10604 10614 10624 10640 10655 10672 10691 10704 10702 10719 10725 10722 10724 10728 10731 10735 10742 10739 10738 10732 10727 10720 10716 10718 10717 10715 10712 10711
10591 10577 10568 10561 10555 10550 10546 10540 10537 10536 10535 10537 10539 10557 10558 10568 10588 10602 10611 10631 10645 10662 10678 10693 10700 10704 10711 10713 10724 10727 10727 10726 10723 10723 10725 10721 10714 10709 10699 10700 10704 10703 10699 10695
10589 10579 10569 10561 10557 10552 10544 10538 10534 10531 10529 10531 10535 10540 10542 10558 10573 10588 10603 10620 10635 10651 10665 10678 10683 10693 10701 10706 10711 10719 10710 10711 10712 10715 10709 10703 10696 10696 10688 10684 10691 10689 10686 10680
10596 10584 10573 10566 10560 10555 10548 10542 10535 10530 10526 10526 10529 10533 10544 10555 10572 10589 10603 10609 10626 10639 10653 10666 10671 10679 10686 10689 10688 10693 10698 10703 10704 10700 10692 10689 10683 10680 10677 10677 10674 10671 10666 10662
10601 10589 10582 10573 10565 10560 10553 10546 10539 10534 10530 10529 10532 10535 10544 10556 10569 10580 10591 10601 10621 10632 10644 10653 10658 10665 10670 10677 10682 10683 10689 10689 10682 10678 10676 10673 10671 10667 10665 10662 10657 10654 10648 10641
10609 10596 10586 10578 10570 10565 10557 10550 10545 10540 10536 10536 10537 10540 10547 10556 10566 10580 10588 10603 10616 10624 10632 10640 10646 10650 10658 10664 10669 10668 10670 10670 10667 10663 10662 10659 10657 10654 10652 10646 10641 10636 10631 10625
10614 10601 10590 10583 10575 10567 10563 10558 10551 10548 10545 10547 10545 10546 10552 10558 10566 10574 10579 10598 10612 10619 10622 10629 10633 10638 10644 10648 10653 10655 10656 10657 10655 10652 10649 10646 10643 10639 10635 10630 10625 10621 10615 10608
10620 10607 10598 10587 10577 10571 10564 10561 10556 10553 10551 10554 10554 10554 10555 10561 10569 10572 10583 10590 10605 10602 10607 10613 10622 10628 10634 10638 10639 10641 10643 10644 10643 10639 10635 10631 10628 10623 10619 10613 10608 10602 10595 10589
10624 10615 10603 10592 10581 10574 10567 10563 10560 10557 10556 10555 10558 10559 10559 10563 10571 10574 10583 10592 10595 10595 10601 10607 10614 10619 10623 10624 10626 10627 10628 10629 10627 10624 10622 10618 10615 10609 10602 10596 10589 10582 10574 10566
10625 10617 10606 10597 10588 10576 10568 10565 10563 10559 10558 10557 10560 10562 10564 10565 10568 10574 10580 10587 10593 10595 10597 10601 10606 10609 10610 10611 10614 10615 10616 10615 10612 10609 10607 10602 10597 10592 10586 10579 10572 10564 10554 10545
10629 10621 10614 10604 10592 10582 10573 10565 10561 10561 10559 10559 10558 10557 10557 10560 10562 10565 10571 10577 10583 10589 10592 10596 10598 10599 10599 10601 10602 10603 10602 10599 10597 10593 10589 10586 10582 10576 10570 10563 10554 10544 10533 10522
10628 10620 10614 10606 10596 10586 10574 10567 10562 10559 10558 10558 10558 10559 10558 10559 10562 10564 10567 10571 10575 10579 10583 10587 10589 10590 10590 10590 10590 10589 10587 10586 10582 10578 10575 10570 10566 10560 10553 10544 10534 10523 10512 10500
10630 10619 10612 10607 10599 10589 10580 10570 10564 10559 10557 10556 10557 10557 10557 10559 10560 10561 10563 10566 10568 10571 10574 10578 10579 10580 10581 10580 10578 10577 10576 10573 10569 10566 10562 10556 10549 10541 10533 10523 10514 10503 10490 10478
10632 10622 10612 10606 10599 10591 10582 10574 10566 10560 10556 10553 10552 10553 10555 10555 10557 10558 10559 10561 10563 10565 10567 10569 10570 10570 10569 10568 10567 10566 10563 10562 10557 10552 10548 10541 10533 10524 10515 10505 10494 10482 10468 10452
10633 10623 10613 10605 10600 10592 10585 10576 10568 10562 10557 10552 10550 10548 10548 10550 10551 10552 10552 10554 10556 10558 10559 10560 10560 10559 10559 10559 10557 10554 10553 10550 10546 10540 10533 10526 10518 10509 10499 10487 10473 10459 10441 10423
10629 10622 10612 10605 10599 10594 10585 10577 10570 10563 10557 10552 10548 10545 10543 10544 10545 10545 10546 10547 10548 10550 10550 10550 10551 10551 10550 10549 10547 10544 10541 10539 10535 10530 10522 10513 10503 10492 10480 10466 10450 10433 10413 10395
10626 10619 10611 10601 10597 10593 10584 10577 10570 10563 10557 10552 10548 10544 10541 10540 10540 10541 10540 10541 10542 10542 10543 10543 10543 10543 10542 10541 10539 10536 10534 10530 10523 10516 10508 10498 10488 10475 10460 10442 10425 10407 10390 10372
10622 10616 10609 10599 10592 10591 10584 10576 10569 10562 10556 10550 10547 10544 10540 10538 10538 10538 10538 10539 10539 10539 10539 10538 10538 10537 10536 10534 10531 10529 10525 10519 10512 10504 10493 10481 10467 10454 10436 10417 10400 10383 10367 10351
10615 10611 10604 10595 10586 10585 10580 10575 10568 10560 10553 10547 10543 10542 10540 10537 10536 10535 10536 10536 10536 10535 10535 10534 10532 10530 10529 10528 10525 10521 10515 10508 10501 10490 10478 10463 10447 10429 10410 10394 10376 10361 10347 10334
10609 10606 10599 10590 10580 10577 10575 10569 10564 10557 10550 10545 10539 10537 10537 10536 10534 10532 10532 10532 10531 10530 10529 10528 10526 10525 10523 10521 10519 10513 10506 10498 10489 10478 10463 10445 10425 10405 10388 10371 10354 10341 10330 10318
10603 10598 10594 10585 10574 10571 10569 10563 10558 10552 10546 10540 10535 10530 10529 10531 10530 10529 10528 10527 10527 10525 10523 10522 10520 10519 10517 10514 10510 10504 10496 10487 10476 10463 10445 10425 10404 10384 10367 10349 10334 10324 10316 10307
10593 10591 10587 10578 10569 10565 10561 10556 10551 10546 10540 10534 10529 10524 10521 10522 10523 10523 10523 10522 10521 10520 10518 10515 10514 10513 10510 10506 10500 10494 10485 10475 10463 10448 10429 10405 10383 10365 10347 10331 10319 10310 10303 10296
10582 10584 10579 10564 10564 10559 10552 10548 10542 10538 10532 10527 10522 10517 10512 10512 10514 10515 10516 10516 10515 10513 10512 10510 10509 10507 10504 10499 10493 10486 10475 10463 10450 10433 10411 10388 10367 10349 10330 10317 10308 10301 10293 10285